EW1967 Laquila IT current weather conditions

sailwx.info

Wind from 236

Air temperature 22.2° C
Dewpoint 13.6° C

Last reported at 2020-Jul-06 20:01 UTC.
Time now 2020-Jul-06 20:35 UTC

Location: N 42°22' E 013°15'.
View on Google Maps.

See reports from other nearby stations

  
Tides and Currents Weather Stations Pressure Air Temp Water Temp Dewpoint Dewpoint Depression Visibility Wind Speed Wind Dir Waves Ship Positions
date/time (UTC)wind fromknots sea level pressurealtimeterstation pressurevisibilityair tempwater tempwave heightnotes
2020-Jul-06 20:01 236 22.2
2020-Jul-06 19:45 217 22.2
2020-Jul-06 19:30 225 2 gusting 9 23.9
2020-Jul-06 19:15 229 2 gusting 8 23.9
2020-Jul-06 19:00 274 1 gusting 6 24.4
2020-Jul-06 18:45 241 3 gusting 9 25.0
2020-Jul-06 18:30 239 2 gusting 7 25.0
2020-Jul-06 18:15 230 2 gusting 6 25.6
2020-Jul-06 18:00 248 4 gusting 11 25.6
2020-Jul-06 17:45 220 4 gusting 8 26.1
2020-Jul-06 17:30 261 2 gusting 8 26.7
2020-Jul-06 17:15 234 2 gusting 10 27.2
2020-Jul-06 17:00 288 2 gusting 13 27.8
2020-Jul-06 16:45 292 5 gusting 10 27.8
2020-Jul-06 16:30 263 2 gusting 8 28.9
2020-Jul-06 16:15 298 2 gusting 6 29.4
2020-Jul-06 16:00 279 1 gusting 6 29.4
2020-Jul-06 15:45 303 0 gusting 4 30.0
2020-Jul-06 15:30 338 29.4
2020-Jul-06 15:15 317 2 gusting 5 29.4
2020-Jul-06 15:00 009 4 gusting 10 28.9
2020-Jul-06 14:45 351 2 gusting 6 29.4
2020-Jul-06 14:30 118 0 gusting 3 29.4
2020-Jul-06 14:18 108 2 gusting 5 28.9
2020-Jul-06 14:02 210 1 gusting 6 29.4
2020-Jul-06 13:49 088 29.4
2020-Jul-06 13:31 142 2 gusting 6 28.9
2020-Jul-06 13:15 091 3 gusting 7 28.9
2020-Jul-06 13:02 030 0 gusting 7 28.3
2020-Jul-06 12:47 021 5 gusting 11 27.8
2020-Jul-06 12:31 040 3 gusting 6 28.3
2020-Jul-06 12:16 111 28.3
2020-Jul-06 12:01 200 1 gusting 5 27.8
2020-Jul-06 11:46 072 1 gusting 11 27.8
2020-Jul-06 11:31 174 27.2
2020-Jul-06 11:15 160 1 gusting 4 26.7
2020-Jul-06 11:01 168 0 gusting 6 26.1
2020-Jul-06 10:45 090 26.1
2020-Jul-06 10:30 037 25.6
2020-Jul-06 10:15 105 2 gusting 5 25.6
2020-Jul-06 10:00 083 25.0
2020-Jul-06 09:45 046 0 gusting 3 25.0
2020-Jul-06 09:30 092 1 gusting 6 24.4
2020-Jul-06 09:15 350 0 gusting 4 23.9
2020-Jul-06 08:47 103 1 gusting 2 23.3
2020-Jul-06 08:31 051 0 gusting 5 22.2
2020-Jul-06 08:16 005 0 gusting 4 22.2
2020-Jul-06 08:01 146 2 gusting 4 21.1
2020-Jul-06 07:46 121 0 gusting 4 21.1
2020-Jul-06 07:31 096 20.6
2020-Jul-06 07:16 105 20.0
2020-Jul-06 07:00 276 19.4
2020-Jul-06 06:45 263 18.9
2020-Jul-06 06:30 263 18.3
2020-Jul-06 06:15 263 17.2
2020-Jul-06 06:00 263 17.2
2020-Jul-06 05:45 263 15.6
2020-Jul-06 05:32 263 15.0
2020-Jul-06 05:16 263 13.9
2020-Jul-06 05:02 263 12.8
2020-Jul-06 04:46 263 12.8
2020-Jul-06 04:31 263 12.2
2020-Jul-06 04:15 263 11.7
2020-Jul-06 04:01 263 11.7
2020-Jul-06 03:45 263 11.1
2020-Jul-06 03:30 263 11.7
2020-Jul-06 03:15 263 11.7
2020-Jul-06 03:00 263 11.7
2020-Jul-06 02:46 263 12.2
2020-Jul-06 02:31 263 12.2
2020-Jul-06 02:15 263 12.2
2020-Jul-06 02:00 263 12.2
2020-Jul-06 01:45 263 12.8
2020-Jul-06 01:30 263 12.8
2020-Jul-06 01:15 263 12.8
2020-Jul-06 01:00 263 12.8
2020-Jul-06 00:45 263 13.3
2020-Jul-06 00:30 263 13.9
2020-Jul-06 00:15 263 13.9
2020-Jul-06 00:03 263 13.9
2020-Jul-05 23:46 263 13.9
2020-Jul-05 23:32 263 14.4
2020-Jul-05 23:16 263 14.4
2020-Jul-05 23:01 269 15.0
2020-Jul-05 22:47 269 15.0
2020-Jul-05 22:31 269 15.0
2020-Jul-05 22:16 269 15.6
2020-Jul-05 22:01 269 0 gusting 1 16.1
2020-Jul-05 21:46 269 16.1
2020-Jul-05 21:31 269 17.2
2020-Jul-05 21:16 269 17.8
2020-Jul-05 21:01 279 1 gusting 4 17.8
2020-Jul-05 20:46 281 1 gusting 3 18.3
2020-Jul-05 20:31 288 1 gusting 4 18.9
2020-Jul-05 20:16 292 1 gusting 4 18.9
2020-Jul-05 20:00 291 2 gusting 4 19.4
2020-Jul-05 19:46 300 3 gusting 6 19.4
2020-Jul-05 19:31 309 2 gusting 6 20.0
2020-Jul-05 19:16 355 2 gusting 6 20.6
2020-Jul-05 19:00 005 4 gusting 7 21.1
2020-Jul-05 18:45 346 2 gusting 5 21.7
2020-Jul-05 18:31 019 2 gusting 6 22.2
2020-Jul-05 18:15 313 22.2
2020-Jul-05 18:00 011 3 gusting 6 22.8
2020-Jul-05 17:46 319 4 gusting 8 23.3
2020-Jul-05 17:30 346 3 gusting 7 23.9
2020-Jul-05 17:16 307 6 gusting 10 24.4
2020-Jul-05 17:00 322 5 gusting 9 25.0
2020-Jul-05 16:45 342 6 gusting 10 25.0
2020-Jul-05 16:31 347 6 gusting 13 25.6
2020-Jul-05 16:15 338 5 gusting 10 25.6
2020-Jul-05 16:00 323 6 gusting 10 26.1
2020-Jul-05 15:45 320 6 gusting 11 26.1
2020-Jul-05 15:30 316 4 gusting 12 26.1
2020-Jul-05 15:16 324 6 gusting 13 26.1
2020-Jul-05 15:01 348 6 gusting 10 26.1
2020-Jul-05 14:46 311 6 gusting 11 26.1
2020-Jul-05 14:30 317 4 gusting 11 26.7
2020-Jul-05 14:15 332 4 gusting 8 26.7
2020-Jul-05 14:00 355 4 gusting 8 26.7
2020-Jul-05 13:45 333 5 gusting 9 26.7
2020-Jul-05 13:30 306 3 gusting 8 26.7
2020-Jul-05 13:15 024 3 gusting 7 26.1
2020-Jul-05 13:00 155 2 gusting 6 26.7
2020-Jul-05 12:45 012 1 gusting 3 26.1
2020-Jul-05 12:30 152 2 gusting 8 26.1
2020-Jul-05 12:15 130 3 gusting 6 26.1
2020-Jul-05 12:00 349 1 gusting 6 26.1
2020-Jul-05 11:45 028 3 gusting 8 26.1
2020-Jul-05 11:31 084 2 gusting 6 25.6
2020-Jul-05 11:16 077 0 gusting 8 25.6
2020-Jul-05 11:00 122 3 gusting 8 25.0
2020-Jul-05 10:47 100 2 gusting 6 24.4
2020-Jul-05 10:30 107 1 gusting 6 24.4
2020-Jul-05 10:16 061 1 gusting 7 23.9
2020-Jul-05 10:02 147 2 gusting 6 23.9
2020-Jul-05 09:45 143 23.3
2020-Jul-05 09:30 086 0 gusting 5 22.8
2020-Jul-05 09:15 293 0 gusting 6 22.2
2020-Jul-05 09:01 153 0 gusting 6 21.7
2020-Jul-05 08:45 153 1 gusting 4 21.7
2020-Jul-05 08:30 142 1 gusting 3 21.1
2020-Jul-05 08:15 131 1 gusting 6 21.1